Location: Ariel
(45.9570°N, 122.5700°W)
Time: 02:26:57
(UTC-07:00)

Transit 4A - Pass Details

Date: 23 July 2019
Orbit: 863 x 981 km, 66.8° (Epoch: 20 August)

Event Time Altitude Azimuth Distance (km) Brightness Sun altitude
Rises 08:30:35 0° 327° (NNW) 3,687 10.7 26.9°
Reaches altitude 10° 08:34:06 10° 346° (NNW) 2,726 10.3 27.5°
Maximum altitude 08:38:23 18° 28° (NNE) 2,162 10.4 28.3°
Drops below altitude 10° 08:42:35 10° 71° (ENE) 2,678 11.7 29.0°
Sets 08:45:59 0° 89° (E) 3,598 12.2 29.6°
